• In Russia
  • List of Countries
  • For 7 days
  • Water Temperature
  • Weather Map
  • Weather Widgets
  • user-avatar
    Login

    Hourly Weather Lezhe

    Today, 17 November, Sunday

    Time Temperature Precipitation Wind Pressure Humidity
    00:00 +13°C° 0 mm 2 mps 738 mmHg 79%
    01:00 +13°C° 0 mm 2 mps 738 mmHg 79%
    02:00 +13°C° 0 mm 2 mps 738 mmHg 79%
    03:00 +13°C° 0 mm 2 mps 737 mmHg 79%
    04:00 +12°C° 0 mm 2 mps 737 mmHg 79%
    05:00 +12°C° 0 mm 2 mps 737 mmHg 79%
    06:00 +12°C° 0 mm 2 mps 737 mmHg 79%
    07:00 +11°C° 0 mm 3 mps 737 mmHg 80%
    08:00 +13°C° 0 mm 3 mps 737 mmHg 76%
    09:00 +15°C° 0 mm 2 mps 737 mmHg 73%
    10:00 +16°C° 0 mm 2 mps 737 mmHg 70%
    11:00 +17°C° 0 mm 2 mps 736 mmHg 68%
    12:00 +18°C° 0 mm 2 mps 736 mmHg 66%
    13:00 +18°C° 0 mm 2 mps 736 mmHg 64%
    14:00 +17°C° 0 mm 2 mps 735 mmHg 67%
    15:00 +16°C° 0 mm 2 mps 735 mmHg 70%
    16:00 +16°C° 0 mm 2 mps 735 mmHg 74%
    17:00 +15°C° 0 mm 2 mps 735 mmHg 74%
    18:00 +15°C° 0 mm 2 mps 735 mmHg 73%
    19:00 +14°C° 0 mm 2 mps 735 mmHg 73%
    20:00 +14°C° 0 mm 2 mps 735 mmHg 73%
    21:00 +14°C° 0 mm 2 mps 735 mmHg 72%
    22:00 +13°C° 0 mm 3 mps 734 mmHg 72%
    23:00 +13°C° 0 mm 3 mps 734 mmHg 72%

    Tomorrow, 18 November, Monday

    Time Temperature Precipitation Wind Pressure Humidity
    00:00 +13°C° 0 mm 3 mps 734 mmHg 72%
    01:00 +13°C° 0 mm 3 mps 734 mmHg 72%
    02:00 +13°C° 3.1 mm 3 mps 734 mmHg 80%
    03:00 +12°C° 3.1 mm 3 mps 734 mmHg 88%
    04:00 +12°C° 3.1 mm 3 mps 735 mmHg 95%
    05:00 +12°C° 0.3 mm 3 mps 735 mmHg 92%
    06:00 +12°C° 0.3 mm 3 mps 735 mmHg 90%
    07:00 +13°C° 0.3 mm 2 mps 736 mmHg 87%
    08:00 +14°C° 0.2 mm 2 mps 736 mmHg 83%
    09:00 +15°C° 0.2 mm 2 mps 737 mmHg 79%
    10:00 +16°C° 0.2 mm 2 mps 737 mmHg 76%
    11:00 +16°C° 0.2 mm 2 mps 737 mmHg 75%
    12:00 +16°C° 0.2 mm 2 mps 737 mmHg 73%
    13:00 +16°C° 0.2 mm 1 mps 737 mmHg 72%
    14:00 +16°C° 0 mm 1 mps 737 mmHg 76%
    15:00 +15°C° 0 mm 1 mps 737 mmHg 80%
    16:00 +14°C° 0 mm 1 mps 737 mmHg 83%
    17:00 +14°C° 0 mm 1 mps 738 mmHg 84%
    18:00 +13°C° 0 mm 1 mps 738 mmHg 84%
    19:00 +13°C° 0 mm 1 mps 738 mmHg 85%
    20:00 +13°C° 0 mm 1 mps 738 mmHg 84%
    21:00 +13°C° 0 mm 1 mps 739 mmHg 83%
    22:00 +12°C° 0 mm 1 mps 739 mmHg 82%
    23:00 +12°C° 0 mm 1 mps 739 mmHg 81%

    Day after tomorrow, 19 November, Tuesday

    Time Temperature Precipitation Wind Pressure Humidity
    00:00 +12°C° 0 mm 1 mps 739 mmHg 80%
    01:00 +12°C° 0 mm 1 mps 739 mmHg 80%
    02:00 +12°C° 0 mm 1 mps 738 mmHg 79%
    03:00 +12°C° 0 mm 1 mps 738 mmHg 79%
    04:00 +12°C° 0 mm 1 mps 738 mmHg 79%
    05:00 +12°C° 0.1 mm 1 mps 738 mmHg 79%
    06:00 +12°C° 0.1 mm 1 mps 738 mmHg 79%
    07:00 +12°C° 0.1 mm 1 mps 739 mmHg 79%
    08:00 +13°C° 0 mm 1 mps 739 mmHg 76%
    09:00 +14°C° 0 mm 1 mps 738 mmHg 74%
    10:00 +16°C° 0 mm 1 mps 738 mmHg 71%
    11:00 +16°C° 0.1 mm 1 mps 738 mmHg 72%
    12:00 +16°C° 0.1 mm 1 mps 737 mmHg 73%
    13:00 +16°C° 0.1 mm 1 mps 737 mmHg 74%
    14:00 +16°C° 0 mm 1 mps 737 mmHg 77%
    15:00 +15°C° 0 mm 1 mps 736 mmHg 81%
    16:00 +14°C° 0 mm 1 mps 736 mmHg 85%
    17:00 +14°C° 0.1 mm 1 mps 736 mmHg 85%
    18:00 +13°C° 0.1 mm 1 mps 736 mmHg 86%
    19:00 +13°C° 0.1 mm 1 mps 736 mmHg 86%
    20:00 +13°C° 1.1 mm 1 mps 736 mmHg 88%
    21:00 +13°C° 1.1 mm 1 mps 736 mmHg 90%
    22:00 +13°C° 1.1 mm 2 mps 736 mmHg 92%
    23:00 +13°C° 1 mm 2 mps 736 mmHg 91%

    20 November, Wednesday

    Time Temperature Precipitation Wind Pressure Humidity
    00:00 +12°C° 1 mm 2 mps 735 mmHg 91%
    01:00 +12°C° 1 mm 2 mps 735 mmHg 91%
    02:00 +12°C° 0.5 mm 2 mps 735 mmHg 90%
    03:00 +11°C° 0.5 mm 3 mps 735 mmHg 89%
    04:00 +11°C° 0.5 mm 3 mps 735 mmHg 87%
    05:00 +11°C° 0.7 mm 3 mps 735 mmHg 88%
    06:00 +11°C° 0.7 mm 3 mps 735 mmHg 89%
    07:00 +11°C° 0.7 mm 4 mps 736 mmHg 90%
    08:00 +11°C° 1.4 mm 4 mps 736 mmHg 90%
    09:00 +12°C° 1.4 mm 3 mps 736 mmHg 90%
    10:00 +12°C° 1.4 mm 3 mps 737 mmHg 91%
    11:00 +12°C° 1 mm 3 mps 737 mmHg 88%
    12:00 +13°C° 1 mm 3 mps 737 mmHg 86%
    13:00 +13°C° 1 mm 3 mps 737 mmHg 83%
    14:00 +13°C° 0.8 mm 3 mps 738 mmHg 85%
    15:00 +12°C° 0.8 mm 3 mps 738 mmHg 87%
    16:00 +13°C° 0.8 mm 2 mps 738 mmHg 89%
    17:00 +12°C° 0.4 mm 2 mps 738 mmHg 90%
    18:00 +12°C° 0.4 mm 2 mps 739 mmHg 91%
    19:00 +10°C° 0.4 mm 2 mps 739 mmHg 92%
    20:00 +11°C° 0.2 mm 1 mps 739 mmHg 92%
    21:00 +11°C° 0.2 mm 1 mps 739 mmHg 91%
    22:00 +11°C° 0.2 mm 1 mps 740 mmHg 91%
    23:00 +10°C° 0 mm 1 mps 740 mmHg 91%

    21 November, Thursday

    Time Temperature Precipitation Wind Pressure Humidity
    00:00 +10°C° 0 mm 1 mps 740 mmHg 91%
    01:00 +10°C° 0 mm 1 mps 740 mmHg 91%
    02:00 +10°C° 0 mm 1 mps 740 mmHg 90%
    03:00 +10°C° 0 mm 1 mps 739 mmHg 90%
    04:00 +10°C° 0 mm 1 mps 739 mmHg 90%
    05:00 +10°C° 0 mm 1 mps 739 mmHg 89%
    06:00 +10°C° 0 mm 1 mps 739 mmHg 88%
    07:00 +10°C° 0 mm 1 mps 739 mmHg 87%
    08:00 +11°C° 0 mm 1 mps 739 mmHg 83%
    09:00 +12°C° 0 mm 1 mps 740 mmHg 78%
    10:00 +12°C° 0 mm 0 mps 740 mmHg 73%
    11:00 +13°C° 0 mm 0 mps 739 mmHg 71%
    12:00 +13°C° 0 mm 0 mps 739 mmHg 69%
    13:00 +13°C° 0 mm 0 mps 739 mmHg 67%
    14:00 +12°C° 0 mm 0 mps 739 mmHg 71%
    15:00 +12°C° 0 mm 0 mps 739 mmHg 75%
    16:00 +11°C° 0 mm 0 mps 739 mmHg 80%
    17:00 +10°C° 0 mm 0 mps 739 mmHg 80%
    18:00 +10°C° 0 mm 0 mps 739 mmHg 80%
    19:00 +10°C° 0 mm 0 mps 739 mmHg 80%
    20:00 +11°C° 0 mm 1 mps 740 mmHg 79%
    21:00 +10°C° 0 mm 1 mps 740 mmHg 79%
    22:00 +10°C° 0 mm 1 mps 740 mmHg 78%
    23:00 +10°C° 0 mm 1 mps 740 mmHg 77%

    22 November, Friday

    Time Temperature Precipitation Wind Pressure Humidity
    00:00 +9°C° 0 mm 1 mps 740 mmHg 76%
    01:00 +9°C° 0 mm 1 mps 740 mmHg 76%
    02:00 +9°C° 0 mm 1 mps 740 mmHg 75%
    03:00 +9°C° 0 mm 1 mps 740 mmHg 73%
    04:00 +9°C° 0 mm 1 mps 740 mmHg 72%
    05:00 +9°C° 0 mm 1 mps 740 mmHg 71%
    06:00 +9°C° 0 mm 1 mps 740 mmHg 70%
    07:00 +8°C° 0 mm 1 mps 740 mmHg 69%
    08:00 +10°C° 0 mm 1 mps 740 mmHg 65%
    09:00 +12°C° 0 mm 1 mps 740 mmHg 61%
    10:00 +13°C° 0 mm 1 mps 740 mmHg 56%
    11:00 +14°C° 0 mm 1 mps 740 mmHg 55%
    12:00 +15°C° 0 mm 1 mps 740 mmHg 53%
    13:00 +14°C° 0 mm 0 mps 739 mmHg 51%
    14:00 +13°C° 0 mm 0 mps 739 mmHg 57%
    15:00 +12°C° 0 mm 0 mps 739 mmHg 63%
    16:00 +11°C° 0 mm 0 mps 739 mmHg 69%
    17:00 +11°C° 0 mm 1 mps 739 mmHg 69%
    18:00 +11°C° 0 mm 1 mps 739 mmHg 69%
    19:00 +10°C° 0 mm 1 mps 740 mmHg 69%
    20:00 +10°C° 0 mm 1 mps 740 mmHg 68%
    21:00 +9°C° 0 mm 2 mps 740 mmHg 67%
    22:00 +9°C° 0 mm 2 mps 740 mmHg 66%
    23:00 +9°C° 0 mm 2 mps 740 mmHg 66%
    Show more